Regional Weather Roundup
Issued by NWS

Home | Current Version | Previous Version | Text Only | Print | Product List | Glossary Off
Versions: 1 2 3 4 5 6 7 8 9 10 11 12 13 14 15 16 17 18 19 20 21 22 23 24 25 26 27 28 29 30 31 32 33 34 35 36 37 38 39 40 41 42 43 44 45 46 47 48 49 50

000
ASUS43 KLMK 221810
RWRKY
KENTUCKY REGIONAL WEATHER ROUNDUP
NATIONAL WEATHER SERVICE LOUISVILLE KY
100 PM EST MON DEC 22 2014

NOTE "FAIR" INDICATES FEW OR NO CLOUDS BELOW 12,000 FEET
WITH NO SIGNIFICANT WEATHER AND/OR OBSTRUCTIONS TO VISIBILITY.

KYZ001>023-026-027-061>063-070>075-221900-
WESTERN AND SOUTH CENTRAL KENTUCKY

CITY           SKY/WX    TMP DP  RH WIND       PRES   REMARKS
PADUCAH        LGT RAIN  50  47  89 SE8       29.73F FOG
HENDERSON      CLOUDY    48  43  81 SE10      29.78F
OWENSBORO      CLOUDY    51  45  80 SE15      29.81F
HOPKINSVILLE   NOT AVBL
BOWLING GREEN  CLOUDY    54  44  69 SE10      29.83F
GLASGOW        CLOUDY    53  43  67 SE7       29.84F
$$

KYZ024-025-028>034-038-045-046-053-221900-
NORTH CENTRAL KENTUCKY

CITY           SKY/WX    TMP DP  RH WIND       PRES   REMARKS
LOUISVILLE/SDF CLOUDY    53  41  63 SE10      29.85F
LOUISVILLE/LOU CLOUDY    52  41  66 SE7       29.86F
FORT KNOX      NOT AVBL
$$

KYZ035>037-039>044-047>052-055>060-089>105-221900-
NORTHEAST KENTUCKY

CITY           SKY/WX    TMP DP  RH WIND       PRES   REMARKS
LEXINGTON      CLOUDY    51  39  63 SE6       29.90F
COVINGTON      PTSUNNY   50  35  56 SE6       29.91F
FRANKFORT      CLOUDY    51  39  63 SE6       29.88F
$$

KYZ054-064>069-076>088-106>120-221900-
SOUTHEAST KENTUCKY

CITY           SKY/WX    TMP DP  RH WIND       PRES   REMARKS
JACKSON        CLOUDY    53  38  56 CALM      29.92F
LONDON         PTSUNNY   58  41  53 S10       29.90F
SOMERSET       CLOUDY    54  41  62 S10       29.90F
MIDDLESBORO    PTSUNNY   56  42  59 E6        29.91F
MONTICELLO     PTCLDY    56  44  64 S13       29.90F
$$



USA.gov is the U.S. government's official web portal to all federal, state and local government web resources and services.